Regional Weather Roundup
Issued by NWS Sterling, VA

Home | Current Version | Previous Version | Graphics & Text | Print | Product List | Glossary On
Versions: 1 2 3 4 5 6 7 8 9 10 11 12 13 14 15 16 17 18 19 20 21 22 23 24 25 26 27 28
000
ASUS41 KLWX 210010
RWRLWX

REGIONAL WEATHER ROUNDUP
NATIONAL WEATHER SERVICE BALTIMORE MD/WASHINGTON DC
700 PM EST FRI JAN 20 2017

Note: "FAIR" indicates few or no clouds below 12,000 feet
with no significant weather and/or obstructions to visibility.
 TC=TEMPERATURE CELSIUS

 * =Non NWS site. Station does not report precipitation (e.g. rain,
    snow, etc.), thunder, or fog.

DCZ001-MDZ009-015-VAZ040>042-051-053>054-210100-
WASHINGTON METRO

CITY           SKY/WX    TMP DP  RH WIND       PRES   REMARKS
WASHINGTON NAT CLOUDY    48  46  93 S3        29.91R
DULLES         CLOUDY    47  44  90 SE5       29.89R FOG
ANDREWS AFB    CLOUDY    45  44  96 CALM      29.89R
FT BELVOIR     CLOUDY    47  44  89 CALM      29.90R
QUANTICO       CLOUDY    47  46  97 CALM      29.92R
COLLEGE PARK*  CLOUDY    45  41  87 CALM      29.91R
LEESBURG*      CLOUDY    48  48 100 SE5       29.89S
MANASSAS*      CLOUDY   N/A N/A N/A SE5       29.90R FOG
GAITHERSBURG*  CLOUDY    45  39  81 SE3       29.93R

$$

MDZ006>007-011-014-210100-
BALTIMORE METRO

CITY           SKY/WX    TMP DP  RH WIND       PRES   REMARKS
BWI AIRPORT    CLOUDY    44  43  96 SE5       29.90S
MD SCIENCE CTR   N/A     45  40  82 MISG      29.91S
MARTIN STATE   CLOUDY    45  45 100 CALM      29.93R FOG
ANNAPOLIS      CLOUDY    45  42  89 CALM      29.91R FOG
FORT MEADE*    CLOUDY    43  41  93 CALM      29.93S

$$

MDZ012-015-019>023-210100-
MARYLAND EASTERN SHORE

CITY           SKY/WX    TMP DP  RH WIND       PRES   REMARKS
OCEAN CITY     CLOUDY    46  46 100 N3        29.92R FOG
SALISBURY      CLOUDY    45  45 100 CALM      29.91F FOG
BAY BRIDGE AP* CLOUDY    45  43  93 CALM      29.91S FOG
CAMBRIDGE*     CLOUDY    43  43 100 CALM      29.91S

$$

MDZ017>025-210100-
SOUTHERN MARYLAND

CITY           SKY/WX    TMP DP  RH WIND       PRES   REMARKS
PATUXENT RIVER CLOUDY    44  44 100 SE5       29.91R FOG
ST INIGOES     CLOUDY    45  44  97 E3        29.90R
LEONARDTOWN*   CLOUDY    45  43  93 SE3       29.91F

$$

MDZ003>005-210100-
NORTH CENTRAL MARYLAND

CITY           SKY/WX    TMP DP  RH WIND       PRES   REMARKS
FREDERICK*     CLOUDY    43  43 100 CALM      29.93R FOG
HAGERSTOWN APT CLOUDY    42  39  89 NW6       29.87R FOG
WESTMINSTER*     N/A     41  41 100 S6        29.88S FOG

$$

MDZ501>502-210100-
WESTERN MARYLAND

CITY           SKY/WX    TMP DP  RH WIND       PRES   REMARKS
OAKLAND*         N/A     45  45 100 S5        29.83R
CUMBERLAND*    CLOUDY    43  43 100 CALM      29.90R

$$

VAZ025>031-210100-
SHENANDOAH VALLEY

CITY           SKY/WX    TMP DP  RH WIND       PRES   REMARKS
WINCHESTER*    CLEAR     43  41  93 N3        29.86R
FRONT ROYAL*   CLEAR     45  43  93 CALM      29.85R
LURAY*         CLEAR     46  46 100 CALM      29.85R
NEW MARKET*    CLEAR     43  41  93 SW3       29.84R
STAUNTON*      CLEAR     47  45  94 SW3       29.88R
WAYNESBORO*    CLEAR     47  46  93 CALM      29.86S

$$

WVZ021-048>050-054>055-210100-
EASTERN WEST VIRGINIA PANHANDLE

CITY           SKY/WX    TMP DP  RH WIND       PRES   REMARKS
MARTINSBURG    MOCLDY    42  40  92 N3        29.87R FOG
PETERSBURG*    MOCLDY    46  43  88 CALM      29.87R

$$

VAZ036>039-050-210100-
CENTRAL FOOTHILLS

CITY           SKY/WX    TMP DP  RH WIND       PRES   REMARKS
CHARLOTTESVILL CLOUDY    51  47  86 SW5       29.88R
CULPEPER*      CLOUDY    50  48  93 S3        29.90S
ORANGE*          N/A     50  50 100 CALM      29.91R
GORDONSVILLE*  CLOUDY    49  48  97 CALM      29.88R
WARRENTON*     CLOUDY    50  45  84 E6        29.87F

$$

VAZ055>057-210100-
NORTH AND CENTRAL PIEDMONT

CITY           SKY/WX    TMP DP  RH WIND       PRES   REMARKS
FREDERICKSBRG* CLOUDY    48  48 100 CALM      29.90R
STAFFORD*      CLOUDY    47  47 100 CALM      29.94R

$$

NCZ024-NYZ072-PAZ021-071-VAZ022-071-210100-
OTHER REGIONAL OBSERVATIONS

CITY           SKY/WX    TMP DP  RH WIND       PRES   REMARKS
NEW YORK CITY  CLOUDY    40  39  97 VRB3      29.95S
PHILADELPHIA   CLOUDY    42  40  92 CALM      29.93R
PITTSBURGH     MOCLDY    53  51  93 S5        29.77R
ROANOKE        CLOUDY    49  48  97 SE6       29.90R
RICHMOND       DRIZZLE   48  48 100 S5        29.90R FOG
RALEIGH        CLOUDY    54  53  97 CALM      29.89R

$$

ANZ530>537-210100-
MARINE OBSERVATIONS

STATION/POSITION TIME  TEMP    WIND        PRES
                       AIR SEA DIR/SP/G
                 (UTC) (F)     (DEG/KT/KT) (MB)
THOMAS PT LIGHT  0000   42 39  280/  2/  2   N/A
BALT KEY BRIDGE  2336   42      60/  4/  4 1012.9R
COVE POINT       2336   43     190/  8/  8 1013.3R
LEWISETTA        2336   45 44  100/  1/  2 1012.3R
SOLOMONS ISLAND  2348          130/  6/  8   N/A
PINEY POINT      2348          130/  9/  9   N/A

$$





USA.gov is the U.S. government's official web portal to all federal, state and local government web resources and services.